Location: *
(58.7167°N, 26.1833°E)
Time: 06:14:14
(UTC+00:00)

ERS-2 - Pass Details

Date: 25 August 2019
Orbit: 495 x 500 km, 98.5° (Epoch: 16 September)

Event Time Altitude Azimuth Distance (km) Brightness Sun altitude
Exits shadow 20:33:17 12° 84° (E) 1,583 4.4 -17.5°
Maximum altitude 20:35:06 16° 51° (NE) 1,363 4.5 -17.6°
Drops below altitude 10° 20:37:26 10° 12° (NNE) 1,712 5.6 -17.8°
Sets 20:40:05 0° 351° (N) 2,600 7.2 -17.9°
